Probability
0 0 0 0 0 0 0 0 0 0 0 0 0 0 0 0 0 0 0 0 0 0 0 0 0 0 0 0 0 0 0 0 0 0 0 0 0 0 0 0 0 0 0
0 0 0 0 0 0 0 0 0 0 0 0 0 0 0 0 0 0 0 0 0 0 0 0 0 0 0 0 0 0 0 0 0 0 0 0 0 0 0 0 0 0 0
0 0 0 0 0 0 0 0 0 0 0 0 0 0 0 0 0 0 0 0 0 0 0 0 0 0 0 0 0 0 0 0 0 0 0 0 0 0 0 0 0 0 0
0 0 0 0 0 0 0 0 0 0 0 0 0 0 0 0 0 0 0 0 0 0 0 0 0 0 0 0 0 0 0 0 0 0 0 0 0 0 0 0 0 0 0
0 0 0 0 0 0 0 0 0 0 0 0 0 0 0 0 0 0 0 0 0 0 0 0 0 0 0 0 0 0 0 0 0 0 0 0 0 0 0 0 0 0 0
0 0 0 0 0 0 0 0 0 0 0 0 0 0 0 0 0 0 0 0 0 0 0 0 0 0 0 0 0 0 0 0 0 0 0 0 0 0 0 0 0 0 0
0 0 0 0 0 0 0 0 0 0 0 0 0 0 0 0 0 0 0 0 0 0 0 0 0 0 0 0 0 0 0 0 0 0 0 0 0 0 0 0 0 0 0
0 0 0 0 0 0 0 0 0 0 0 0 0 0 0 0 0 0 0 0 0 0 0 0 0 0 0 0 0 0 0 0 0 0 0 0 0 0 0 0 0 0 0
0 0 0 0 0 0 0 0 0 0 0 0 0 0 0 0 0 0 0 0 0 0 0 0 0 0 0 0 0 0 0 0 0 0 0 0 0 0 0 0 0 0 0
0 0 0 0 0 0 0 0 0 0 0 0 0 0 0 0 0 0 0 0 0 0 0 0 0 0 0 0 0 0 0 0 0 0 0 0 0 0 0 0 0 0 0
0 0 0 0 0 0 0 0 0 0 0 0 0 0 0 0 0 0 0 0 0 0 0 0 0 0 0 0 0 0 0 0 0 0 0 0 0 0 0 0 0 0 0
0 0 0 0 0 0 0 0 0 0 0 0 0 0 0 0 0 0 0 0 0 0 0 0 0 0 0 0 0 0 0 0 0 0 0 0 0 0 0 0 0 0 0
0 0 0 0 0 0 0 0 0 0 0 0 0 0 0 0 0 0 0 0 0 0 0 0 0 0 0 0 0 0 0 0 0 0 0 0 0 0 0 0 0 0 0
0 0 0 0 0 0 0 0 0 0 0 0 0 0 0 0 0 0 0 0 0 0 0 0 0 0 0 0 0 0 0 0 0 0 0 0 0 0 0 0 0 0 0
0 0 0 0 0 0 0 0 0 0 0 0 0 0 0 0 0 0 0 0 0 0 0 0 0 0 0 0 0 0 0 0 0 0 0 0 0 0 0 0 0 0 0
0 0 0 0 0 0 0 0 0 0 0 0 0 0 0 0 0 0 0 0 0 0 0 0 0 0 0 0 0 0 0 0 0 0 0 0 0 0 0 0 0 0 0
0 0 0 0 0 0 0 0 0 0 0 0 0 0 0 0 0 0 0 0 0 0 0 0 0 0 0 0 0 0 0 0 0 0 0 0 0 0 0 0 0 0 0
0 0 0 0 0 0 0 0 0 0 0 0 0 0 0 0 0 0 0 0 0 0 0 0 0 0 0 0 0 0 0 0 0 0 0 0 0 0 0 0 0 0 0
0 0 0 0 0 0 0 0 0 0 0 0 0 0 0 0 0 0 0 0 0 0 0 0 0 0 0 0 0 0 0 0 0 0 0 0 0 0 0 0 0 0 0
0 0 0 0 0 0 0 0 0 0 0 0 0 0 0 0 0 0 0 0 0 0 0 0 0 0 0 0 0 0 0 0 0 0 0 0 0 0 0 0 0 0 0
0 0 0 0 0 0 0 0 0 0 0 0 0 0 0 0 0 0 0 0 0 0 0 0 0 0 0 0 0 0 0 0 0 0 0 0 0 0 0 0 0 0 0
0 0 0 0 0 0 0 0 0 0 0 0 0 0 0 0 0 0 0 0 0 0 0 0 0 0 0 0 0 0 0 0 0 0 0 0 0 0 0 0 0 0 0
0 0 0 0 0 0 0 0 0 0 0 0 0 0 0 0 0 0 0 0 0 0 0 0 0 0 0 0 0 0 0 0 0 0 0 0 0 0 0 0 0 0 0
0 0 0 0 0 0 0 0 0 0 0 0 0 0 0 0 0 0 0 0 0 0 0 0 0 0 0 0 0 0 0 0 0 0 0 0 0 0 0 0 0 0 0
0 0 0 0 0 0 0 0 0 0 0 0 0 0 0 0 0 0 0 0 0 0 0 0 0 0 0 0 0 0 0 0 0 0 0 0 0 0 0 0 0 0 0
0 0 0 0 0 0 0 0 0 0 0 0 0 0 0 0 0 0 0 0 0 0 0 0 0 0 0 0 0 0 0 0 0 0 0 0 0 0 0 0 0 0 0
Wind_Speed
12 9 9 10 10 11 13 15 16 15 13 11 11 10 10 9 8 8 9 10 9 10 8 6 6 6 5 5 5 3 2 1 1 1 2 2 2 2 1 1 1 2 2
9 8 8 9 12 14 15 16 16 16 16 13 12 9 8 6 6 6 8 10 10 10 9 8 7 7 5 5 5 4 3 1 1 2 1 2 3 2 1 1 1 1 1
12 10 9 10 11 14 16 15 17 16 17 13 8 6 5 4 5 7 8 9 10 10 9 10 8 7 7 6 6 6 6 3 1 1 3 2 3 3 3 2 1 2 1
11 9 9 9 12 14 13 14 15 15 15 14 13 14 11 11 11 8 8 8 10 10 10 10 9 8 7 7 7 6 5 5 3 1 1 2 3 2 3 3 2 2 2
10 10 10 10 11 11 11 12 12 13 14 15 16 16 12 9 6 6 8 9 8 9 10 10 9 8 7 7 7 6 6 5 4 4 3 2 1 2 2 4 4 3 3
8 8 7 6 6 7 8 9 11 13 14 16 16 16 14 11 10 9 10 8 6 7 9 9 9 9 7 8 8 7 8 6 5 4 4 4 3 3 4 4 4 4 3
6 6 6 6 7 8 9 10 12 12 13 15 15 16 14 14 14 12 11 10 7 7 10 9 9 8 8 8 7 7 7 7 6 6 4 4 4 3 4 3 3 3 3
6 7 7 7 7 9 9 10 12 11 13 14 14 13 12 10 9 10 10 11 9 9 10 11 10 9 9 8 7 6 7 6 6 6 5 4 4 4 4 4 3 2 3
8 7 6 6 7 8 9 11 12 11 12 13 12 11 12 11 10 10 9 8 7 7 10 10 10 9 9 9 8 6 7 7 6 6 6 4 4 4 4 3 4 4 3
7 6 6 6 5 6 6 7 9 10 10 11 11 9 11 11 10 9 10 9 9 8 10 10 10 9 9 8 8 6 6 6 6 5 6 5 4 4 4 4 4 4 5
8 7 5 4 4 4 5 6 7 7 8 10 10 9 10 10 9 9 10 10 9 9 10 10 10 10 9 8 8 7 7 7 6 5 6 6 5 4 4 3 4 4 4
6 5 4 4 4 5 5 6 7 7 8 8 9 9 9 9 9 9 9 9 9 9 9 9 9 9 9 9 9 8 8 8 8 7 7 7 5 6 4 4 5 5 5
5 4 4 4 5 5 5 6 6 7 7 8 8 9 9 9 10 9 8 8 9 8 8 9 9 9 9 9 9 8 8 8 7 7 7 7 6 6 5 5 5 5 5
5 5 4 5 5 5 5 5 6 6 7 7 8 9 9 9 9 8 8 8 8 8 9 8 8 8 8 8 8 7 7 6 6 6 6 6 7 8 7 6 6 5 5
5 7 6 6 5 5 5 6 6 6 7 8 8 8 7 7 7 7 7 7 7 8 7 7 6 6 6 6 7 7 7 6 5 5 5 6 7 9 7 5 5 5 4
7 7 7 7 7 7 7 7 6 6 7 8 8 7 7 7 7 7 7 7 7 6 6 7 7 6 5 8 10 8 6 6 6 5 5 5 6 9 10 11 9 7 5
9 9 9 9 9 8 8 8 7 7 7 7 7 7 7 7 7 7 7 7 7 6 6 6 6 6 6 8 10 10 6 6 6 5 4 4 5 6 5 8 9 9 10
9 9 8 7 6 6 6 7 7 8 8 7 7 7 8 7 7 7 7 6 5 6 6 5 5 5 5 7 8 8 5 4 4 5 5 5 5 5 5 4 4 5 6
10 9 8 7 6 7 8 9 8 8 8 8 8 8 8 8 8 7 7 5 5 5 4 4 5 5 4 6 6 6 4 3 4 4 4 4 5 8 8 4 4 5 5
6 6 6 5 7 7 9 10 9 9 9 8 8 7 8 8 8 7 6 5 5 5 4 4 4 4 3 5 6 6 3 3 2 2 3 5 5 7 7 4 4 5 6
6 6 7 7 7 9 10 10 9 9 8 7 7 7 7 7 7 6 5 5 5 5 4 4 2 2 3 4 5 6 3 4 3 2 2 3 7 7 7 5 4 7 6
6 7 7 6 6 9 11 10 9 7 7 8 8 7 6 6 6 7 6 5 6 6 4 3 2 1 1 2 3 4 3 3 3 3 3 3 6 7 7 5 7 9 6
7 6 8 8 6 7 9 11 8 9 9 9 8 7 7 6 6 7 7 5 5 4 3 3 2 1 1 1 2 3 3 3 2 2 3 4 5 5 4 6 8 6 2
7 7 9 9 7 6 7 8 9 10 10 10 8 7 7 6 5 5 5 5 5 4 4 3 3 2 1 1 1 1 1 2 1 1 2 3 3 2 3 4 3 2 2
6 8 9 10 9 8 7 8 9 11 11 9 8 7 6 6 5 4 3 4 3 4 5 4 4 3 2 3 3 2 2 2 2 1 1 0 0 1 1 2 2 2 2
7 8 8 9 9 9 9 8 8 10 12 9 7 6 6 5 5 5 4 5 4 5 4 4 3 2 2 2 2 2 2 2 1 0 1 1 1 2 2 2 2 2 2
Wind_Direction
238 227 213 204 196 193 192 193 194 193 186 187 189 190 196 194 194 195 192 189 188 186 186 187 180 177 182 184 172 158 154 154 122 78 359 347 359 26 21 12 28 21 16
243 231 213 198 197 197 196 195 195 192 190 193 192 193 187 190 192 186 190 192 191 189 190 188 185 183 180 176 175 164 153 149 133 134 98 344 335 330 354 354 10 342 341
233 230 215 207 201 201 198 196 196 193 193 187 176 162 149 148 174 189 194 196 193 191 190 190 185 184 181 186 186 178 168 171 169 151 149 160 240 297 313 313 323 320 313
232 228 216 209 204 205 198 196 194 193 190 182 180 179 186 192 195 189 191 189 191 191 190 188 187 185 185 187 187 181 175 162 173 170 152 165 167 178 299 307 300 299 281
227 224 217 210 205 198 192 193 189 190 187 185 187 188 194 196 177 169 179 186 190 192 190 188 187 187 189 188 180 176 179 176 173 172 163 157 139 165 190 274 299 307 278
225 224 216 199 194 186 185 183 184 188 186 187 189 192 193 182 171 177 184 188 187 190 191 188 190 189 188 188 187 184 182 184 179 177 172 169 171 188 189 228 261 280 286
220 219 208 195 190 185 185 182 184 188 186 188 191 195 193 186 186 185 187 185 185 192 194 189 191 190 191 189 182 182 186 185 185 187 193 193 193 172 172 192 239 268 288
220 220 214 201 195 190 184 183 187 188 185 188 193 193 190 190 193 189 186 190 194 195 187 188 191 191 187 185 181 184 188 185 190 194 191 195 203 186 181 181 181 262 291
219 218 212 199 193 188 188 187 187 186 187 189 189 189 189 190 191 188 186 189 189 183 181 186 189 189 186 184 180 189 190 185 193 195 196 201 204 199 198 189 179 184 249
217 213 207 201 194 189 186 184 186 187 185 185 187 189 190 192 189 184 188 188 184 178 178 184 187 186 186 183 182 187 186 185 194 191 194 206 205 200 197 196 198 193 201
210 207 205 196 181 170 170 176 180 178 179 183 184 184 188 187 184 188 191 188 183 180 182 185 185 186 186 183 184 189 182 189 195 194 199 210 200 201 203 198 200 206 200
205 196 189 175 172 175 175 177 178 179 181 179 179 185 183 181 185 190 188 184 183 183 183 181 183 186 186 184 187 190 188 192 197 201 202 211 201 208 206 204 210 215 211
190 187 182 184 188 185 181 180 179 179 174 171 175 179 180 183 189 189 183 180 180 178 177 178 183 185 185 186 190 190 192 196 201 200 204 209 200 214 214 213 218 221 222
193 192 197 200 198 190 184 182 181 175 169 170 175 182 185 185 186 183 178 178 177 176 179 183 185 185 184 186 186 187 191 197 202 202 205 205 205 214 214 217 221 220 223
208 204 204 203 197 191 186 182 180 173 167 170 178 184 177 174 173 173 172 171 173 176 176 176 177 177 179 185 182 185 188 192 200 205 209 212 216 222 220 220 217 209 219
218 214 207 202 200 196 189 181 179 174 166 172 178 171 165 166 168 168 165 163 166 167 165 173 175 178 188 190 190 184 186 189 195 208 215 219 224 234 239 245 241 226 221
215 210 207 205 203 195 184 182 175 163 165 171 168 165 165 166 167 161 159 165 167 162 164 171 172 183 192 189 193 191 182 189 198 204 207 218 228 233 230 247 253 251 252
216 215 208 204 197 180 170 160 154 159 164 166 166 164 162 162 158 156 162 164 160 163 167 171 174 179 192 190 194 193 184 190 200 204 206 213 225 229 230 223 234 242 249
212 211 200 191 176 170 161 149 151 155 161 169 170 167 162 158 156 161 164 160 155 158 163 163 167 177 192 189 189 178 171 193 210 212 210 214 222 243 248 233 239 253 259
205 195 176 161 165 165 151 149 155 160 172 175 168 160 157 157 160 162 156 149 150 152 146 146 162 172 183 187 186 175 168 188 205 213 222 233 241 251 252 235 233 256 262
199 177 163 165 170 157 149 151 156 173 172 153 144 145 149 151 150 143 140 139 134 131 134 138 142 159 172 185 188 183 173 185 192 206 221 236 253 259 262 263 241 260 276
181 164 157 159 153 153 150 152 165 160 140 136 136 139 140 138 134 133 131 133 135 135 138 135 129 128 151 169 193 199 200 189 185 210 220 236 259 267 272 275 278 287 298
170 159 152 145 145 155 156 156 157 142 135 132 134 133 127 126 133 137 137 135 137 140 146 147 157 160 142 200 210 211 219 225 208 219 247 263 271 277 274 281 291 300 297
164 153 145 144 151 154 151 147 141 138 134 134 134 133 130 126 122 126 136 142 150 149 151 159 167 166 166 200 204 201 211 237 245 230 257 278 292 304 303 301 304 297 256
155 151 152 152 152 144 138 137 139 136 132 131 132 131 129 132 125 117 125 140 157 165 165 175 171 169 197 222 216 193 192 195 201 154 105 76 337 296 293 289 283 278 283
145 142 141 141 141 138 136 138 140 138 135 133 134 134 132 129 128 122 97 82 106 121 128 143 153 181 202 207 213 238 253 261 246 104 152 230 247 258 266 273 281 276 271